Location: El Puerto
(42.3705°N, 3.1617°E)
Time: 11:49:39
(UTC+00:00)

Daily predictions for brighter satellites

Satellite Brightness Start Highest point End
(mag) Time Altitude Azimuth Time Altitude Azimuth Time Altitude Azimuth
Lacrosse 5 rocket 2.0 16:42:25 10° WSW 16:45:56 41° NW 16:49:22 10° NE
Cosmos 773 Rocket 4.2 16:41:58 10° S 16:47:04 54° ESE 16:52:14 10° NNE
SL-23 DEB 4.1 16:44:06 10° SW 16:47:22 57° SE 16:52:09 10° ENE
YAOGAN 6 2.5 16:46:48 10° SSE 16:50:24 67° ENE 16:53:58 10° N
Cosmos 1606 3.1 16:48:50 10° SSW 16:52:42 70° W 16:56:36 10° N
Cosmos 2297 3.7 16:49:30 10° NNW 16:55:15 80° ENE 17:00:57 10° SSE
AQUARIUS 4.4 16:51:16 10° SE 16:55:33 47° ENE 16:59:53 10° N
SL-16 R/B 2.4 16:51:23 10° SSW 16:57:02 81° WNW 17:02:44 10° NNE
CZ-4B R/B 2.5 16:57:03 10° NE 16:59:35 23° E 17:02:11 10° SSE
Landsat 5 3.9 16:56:20 10° N 17:00:49 77° WNW 17:05:19 10° SSW
BREEZE-M DEB (TANK) 2.1 16:58:52 10° WSW 17:01:47 54° NNW 17:03:26 13° NE
SMAP 3.0 16:59:55 10° SSE 17:04:31 68° ENE 17:09:10 10° N
USA 215 4.2 16:59:29 10° ENE 17:05:05 30° SE 17:10:39 10° S
YAOGAN 1 4.4 17:09:19 12° NE 17:09:19 12° NE 17:10:22 10° NE
Sich 1 3.9 17:04:50 10° NNW 17:09:06 54° W 17:13:18 10° S
Cosmos 1151 Rocket 2.9 17:06:50 10° S 17:11:07 77° E 17:15:23 10° N
CZ-4C R/B 4.2 17:08:17 10° N 17:11:47 45° WNW 17:15:13 10° SSW
Cosmos 1470 Rocket 3.8 17:09:53 10° N 17:14:03 46° ENE 17:18:12 10° SSE
CSL-04 DEB 4.4 17:12:18 10° NNE 17:16:30 81° ESE 17:20:46 10° SSW
Cosmos 1515 Rocket 3.8 17:14:58 10° SSE 17:19:08 46° E 17:23:22 10° NNE
Cosmos 864 Rocket 4.5 17:13:44 10° N 17:20:02 70° E 17:26:14 10° SSE
CZ-2C R/B 4.0 17:16:47 10° ESE 17:20:31 22° ENE 17:24:08 10° NNE
TIMED 4.5 17:18:14 10° SSW 17:22:35 87° ESE 17:26:59 10° NNE
Cosmos 482 Debris 2.3 17:21:20 10° NW 17:23:06 61° NNE 17:23:46 33° ESE
SL-8 Rocket 4.1 17:16:58 10° N 17:23:15 87° W 17:29:33 10° S
Cosmos 1238 Rocket 4.3 17:22:57 10° NNE 17:26:13 21° ENE 17:29:55 10° SE
COSMO-SKYMED 1 3.1 17:23:17 10° NNE 17:27:20 37° E 17:31:22 10° SSE
USA 281 4.0 17:22:18 10° ESE 17:27:47 29° NE 17:33:16 10° N
X-37B 0.6 17:24:41 10° W 17:27:51 74° NNW 17:29:28 26° ENE
Cosmos 1689 Rocket 3.8 17:29:02 17° ESE 17:29:02 17° ESE 17:30:22 10° SE
SAR-Lupe-4 4.3 17:29:13 21° NE 17:30:53 31° E 17:34:06 10° SSE
Cosmos 2228 Rocket 3.9 17:27:49 10° SSE 17:31:47 31° E 17:34:29 17° NE
CORIOLIS 4.3 17:26:27 10° SSE 17:31:51 80° WSW 17:37:20 10° NNW
Helios 1A Rocket 4.5 17:33:25 18° NE 17:33:25 18° NE 17:35:02 10° NNE
USA 81 4.2 17:27:29 10° N 17:32:47 81° W 17:38:04 10° S
Meteor 1-4 Rocket 2.5 17:29:30 10° SSW 17:33:06 82° W 17:36:39 10° N
H-2A R/B 3.2 17:35:17 21° ENE 17:35:24 21° ENE 17:39:10 10° NNE
Cosmos 2285 Rocket 4.4 17:29:04 10° NNW 17:35:25 68° WSW 17:41:40 10° S
Cosmos 1812 3.5 17:32:16 10° SSE 17:35:38 30° E 17:36:35 26° ENE
Cosmos 1939 Rocket 2.9 17:34:01 10° SSE 17:37:46 51° ENE 17:41:36 10° N
USA 267 4.1 17:34:11 19° ENE 17:37:48 31° NNE 17:43:22 10° NW
Cosmos 1821 Rocket 4.3 17:32:58 10° N 17:38:55 44° ENE 17:44:55 10° SSE
Cosmos 1328 Rocket 4.1 17:34:49 10° SSW 17:39:04 59° W 17:43:22 10° N
CZ-4 R/B 2.7 17:41:27 22° NE 17:41:27 22° NE 17:43:31 10° NNE
BREEZE-M DEB (TANK) 3.1 17:38:08 10° SW 17:41:57 31° SSE 17:42:53 25° ESE
Cosmos 44 Rocket 4.1 17:38:46 10° NNW 17:43:25 32° NE 17:45:09 26° E
PSLV R/B 4.4 17:42:19 28° ENE 17:43:42 36° E 17:47:26 10° SSE
IRS-1C Rocket 4.2 17:39:00 10° SSE 17:44:07 54° ENE 17:49:15 10° N
Cosmos 1933 Rocket 3.5 17:39:41 10° N 17:44:09 67° E 17:48:34 10° SSE
Cosmos 1602 4.0 17:42:46 10° NNW 17:46:41 69° W 17:50:31 10° S
NOAA 11 4.3 17:42:28 10° S 17:47:53 76° WSW 17:53:21 10° NNW
SAR-Lupe-1 4.2 17:46:35 32° NE 17:47:53 49° E 17:51:22 10° S
Lacrosse 4 Rocket 3.0 17:45:07 10° SSE 17:46:59 18° SE 17:46:59 18° SE
Cosmos 1680 Rocket 4.1 17:43:43 10° SSE 17:48:28 36° ESE 17:50:19 28° ENE
CZ-4B R/B 4.2 17:44:07 10° S 17:49:12 47° W 17:54:19 10° NNW
SKYMED 3 4.5 17:47:24 12° NNE 17:51:26 69° ESE 17:55:44 10° S
SL-24 R/B 3.7 17:49:33 26° NNE 17:51:27 57° E 17:55:01 10° S
Cosmos 1603 3.6 17:46:59 10° SSW 17:52:36 78° ESE 17:56:56 18° NNE
CZ-2D R/B 3.2 17:50:54 10° SSE 17:54:38 56° ENE 17:58:24 10° N
Cosmos 1943 3.1 17:50:21 10° SSW 17:55:58 73° ESE 17:59:58 20° NNE
H-2A R/B 4.2 17:55:30 10° NNW 17:58:55 24° WNW 18:02:24 10° WSW
Cosmos 2369 Rocket 2.2 17:54:16 10° NNW 17:59:59 86° WSW 18:05:37 10° SSE
Cosmos 1943 Rocket 3.1 17:55:47 10° NW 18:01:08 51° WSW 18:06:32 10° S
Okean O Rocket 3.4 17:57:31 10° SSW 18:01:27 33° W 18:05:27 10° NNW
Cosmos 1782 4.0 17:57:44 10° SSW 18:01:30 43° WNW 18:05:20 10° N
Meteor 1-5 Rocket 4.2 17:56:33 10° N 18:02:26 66° ENE 18:08:06 10° SSE
Cosmos 1461 3.8 17:58:41 10° S 18:02:44 34° ESE 18:02:44 34° ESE
Okean-O 2.7 17:58:43 10° SSE 18:02:59 49° ENE 18:07:16 10° N
CENTAUR R/B 2.8 18:00:43 10° S 18:06:04 43° ESE 18:07:44 36° ENE
ISS -1.7 18:04:11 10° NW 18:05:55 19° N 18:05:55 19° N
Cosmos 2112 Rocket 4.2 18:03:58 10° S 18:08:59 47° ESE 18:09:53 43° ENE
ERS-2 3.3 18:10:45 13° N 18:13:43 41° WNW 18:17:10 10° SW
NOSS 3-2 (C) 3.5 18:08:55 10° S 18:14:10 47° ESE 18:15:09 43° E
SKYMED 2 3.9 18:11:44 14° N 18:15:28 64° WNW 18:19:46 10° SSW
Cosmos 1869 Rocket 4.0 18:14:27 10° N 18:22:43 14° SSE 18:23:19 10° SSE
BREEZE-M DEB (TANK) 3.1 18:10:18 10° WSW 18:19:21 90° SE 18:19:59 63° ENE
Meteor 1-27 Rocket 3.8 18:14:54 10° SSE 18:20:10 49° E 18:20:11 49° E
Meteor 1-10 Rocket 4.1 18:18:57 10° S 18:24:36 89° ESE 18:28:49 18° N
Lacrosse 5 rocket 3.7 18:24:42 10° NW 18:25:52 11° NNW 18:25:52 11° NNW
FALCON 9 R/B 3.2 18:27:52 10° SW 18:28:30 14° SSW 18:28:30 14° SSW
CZ-4B R/B 4.1 18:29:38 10° NNW 18:31:40 16° WNW 18:33:44 10° WSW
DMSP B5D1-3 4.5 18:33:13 63° SE 18:33:13 63° SE 18:37:55 10° S
Gblst 52 Del rocket 4.4 18:30:47 10° SW 18:37:02 58° SE 18:37:18 57° SE
NOSS 3-2 (A) 3.5 18:33:52 10° SW 18:39:27 71° NW 18:41:27 44° NNE
YAOGAN 1 4.1 18:46:28 27° NNW 18:46:28 27° NNW 18:48:30 10° NNW
Cosmos 1535 Rocket 4.2 18:40:19 10° N 18:46:27 78° E 18:52:34 10° SSE
USA 215 3.2 18:46:42 52° NE 18:48:28 79° NW 18:55:00 10° WSW
Cosmos 1656 Rocket 4.3 18:49:28 10° NNW 18:54:57 55° WSW 18:58:59 18° S
MOS 1 Rocket 4.0 18:52:44 32° N 18:55:12 61° WNW 19:00:26 10° SSW
USA 238 DEB 3.9 18:52:19 10° SW 18:58:49 64° NW 19:00:34 48° N
USA 238 3.9 18:52:23 10° SW 18:58:55 65° NW 19:00:38 49° N
CZ-2C R/B 3.9 18:55:21 10° S 19:00:08 44° W 19:04:45 10° NNW
X-37B 4.1 19:01:35 10° WNW 19:01:44 11° WNW 19:01:44 11° WNW
Cosmos 1934 Rocket 4.2 19:02:04 10° NNW 19:08:24 68° W 19:14:36 10° S
USA 281 3.6 19:05:24 10° S 19:11:52 60° WSW 19:18:23 10° NNW
H-2A R/B 3.1 19:15:55 40° NW 19:15:55 40° NW 19:19:30 10° NNW
CZ-4 R/B 4.1 19:17:29 15° NW 19:17:29 15° NW 19:18:24 10° NW
USA 267 3.6 19:21:32 55° NNW 19:21:32 55° NNW 19:26:39 10° NW
Lacrosse 4 Rocket 4.2 19:22:38 10° SW 19:23:20 14° WSW 19:23:20 14° WSW
CENTAUR R/B 3.9 19:51:07 10° WSW 19:54:58 33° WNW 19:54:58 33° WNW
